SKYNET 4C               
1 20776U 90079A   19260.73423079  .00000128  00000-0  00000+0 0  9990
2 20776  13.9842   8.2854 0003031 184.9015 100.9726  1.00270915106224
EUTELSAT 2-F1           
1 20777U 90079B   19260.36766189  .00000051  00000-0  00000-0 0  9998
2 20777  14.5245  17.4665 0003421 225.7533 126.0618  0.99343575 86274